Content
SEND FEEDBACK

Daily
Averages
Monthly
Summary
United States of America

CUBA, NEW YORK


Home > North America > United States > New York
Elevation: 1640 feet     Latitude: 42 08N     Longitude: 078 14W

WEATHER
 
SELECT A DAY
Number of Records: 53,601;   Date Range: 1/2/95 - 7/27/14
 
SHARE

PRINT THIS DATA

[ ← Previous Day ]
WEATHER ALMANAC - FEBRUARY 16, 2014
[ Next Day → ]
[ °C ]   °F
Weather ElementAverageHighLow
Temperature9.8 °F17.6 °F (3:15 pm)5 °F (2:55 am)
Dewpoint5.9 °F10.4 °F (1:15 pm)1.4 °F (5:55 am)
Humidity84.3 %92 % (2:55 am)73 % (2:15 pm)
Barometer29.92 in30.12 in (11:55 pm)29.84 in (3:35 am)
Wind Speed4.5 mph9.2 mph (6:15 pm)
Wind Gust16.1 mph (7:55 pm)
Weather ElementAverage
Visibility3.7 mi
Wind DirectionWSW (247.6 °)

Weather ElementTotal
Precipitation---
Heating Degree Days53.7 (Base 65)
Averaged from 71 records on February 16, 2014
WEATHER CONDITIONS BREAKOUT
WIND DIRECTION BREAKOUT
WEATHER BY HOUR - FEBRUARY 16, 2014
[ °C ]   °F
Local TimeTemperatureDewpointHumidityBarometerVisibilityWind DirectionWind SpeedGust SpeedPrecipitationEventsConditions
12:35 AM8.6 °F3.2 °F79 %29.85 in3.0 miCalmSnowLight Snow
12:55 AM8.6 °F3.2 °F79 %29.85 in2.5 miWest (270°)3.5 mphSnowLight Snow
1:15 AM8.6 °F3.2 °F79 %29.86 in2.5 miWest (270°)3.5 mphSnowLight Snow
1:35 AM8.6 °F3.2 °F79 %29.85 in4.0 miWest (270°)5.8 mphSnowLight Snow
1:55 AM6.8 °F3.2 °F85 %29.85 in4.0 miWest (260°)8.1 mphSnowLight Snow
2:15 AM6.8 °F3.2 °F85 %29.85 in3.0 miWest (260°)3.5 mphSnowLight Snow
2:35 AM6.8 °F3.2 °F85 %29.85 in2.0 miWSW (250°)3.5 mphSnowLight Snow
2:55 AM5.0 °F3.2 °F92 %29.85 in4.0 miWest (280°)5.8 mphSnowLight Snow
3:15 AM5.0 °F3.2 °F92 %29.85 in4.0 miWest (270°)6.9 mphSnowLight Snow
3:35 AM5.0 °F3.2 °F92 %29.84 in2.5 miWest (280°)6.9 mphSnowLight Snow
3:55 AM5.0 °F3.2 °F92 %29.84 in1.5 miWest (270°)4.6 mphSnowLight Snow
4:15 AM5.0 °F3.2 °F92 %29.84 in1.5 miWest (280°)3.5 mphSnowLight Snow
4:35 AM5.0 °F3.2 °F92 %29.85 in1.0 miWest (280°)3.5 mphSnowLight Snow
4:55 AM5.0 °F3.2 °F92 %29.85 in4.0 miWest (270°)6.9 mphSnowLight Snow
5:15 AM5.0 °F3.2 °F92 %29.85 in2.5 miWest (270°)3.5 mphSnowLight Snow
5:35 AM5.0 °F3.2 °F92 %29.86 in2.0 miWest (270°)4.6 mphSnowLight Snow
5:55 AM5.0 °F1.4 °F85 %29.85 in3.0 miWest (260°)3.5 mphSnowLight Snow
6:15 AM5.0 °F3.2 °F92 %29.86 in3.0 miWSW (240°)3.5 mphSnowLight Snow
6:35 AM5.0 °F3.2 °F92 %29.85 in5.0 miWest (260°)3.5 mphSnowLight Snow
6:55 AM5.0 °F3.2 °F92 %29.85 in4.0 miWest (260°)3.5 mphSnowLight Snow
7:15 AM5.0 °F3.2 °F92 %29.86 in4.0 miWSW (250°)4.6 mphSnowLight Snow
7:35 AM5.0 °F3.2 °F92 %29.87 in7.0 miWSW (250°)4.6 mphSnowLight Snow
7:55 AM5.0 °F3.2 °F92 %29.88 in10.0 miCalmSnowLight Snow
8:15 AM6.8 °F3.2 °F85 %29.88 in10.0 miCalmSnowLight Snow
8:35 AM8.6 °F5.0 °F85 %29.87 in10.0 miWSW (240°)3.5 mphOvercast
8:55 AM8.6 °F5.0 °F85 %29.88 in10.0 miWSW (240°)4.6 mphOvercast
9:15 AM8.6 °F5.0 °F85 %29.88 in3.0 miWSW (250°)4.6 mphSnowLight Snow
9:35 AM10.4 °F5.0 °F79 %29.88 in1.5 miWest (260°)3.5 mphSnowLight Snow
9:55 AM10.4 °F5.0 °F79 %29.89 in1.0 miCalmSnowLight Snow
10:15 AM10.4 °F6.8 °F85 %29.89 in0.8 miWest (260°)3.5 mphSnowLight Snow
10:35 AM10.4 °F6.8 °F85 %29.89 in1.2 miWest (270°)3.5 mphSnowLight Snow
10:55 AM12.2 °F6.8 °F79 %29.89 in1.2 miWest (280°)3.5 mphSnowLight Snow
11:15 AM12.2 °F8.6 °F85 %29.89 in1.0 miCalmSnowLight Snow
11:35 AM12.2 °F8.6 °F85 %29.88 in1.0 miCalmSnowLight Snow
11:55 AM12.2 °F8.6 °F85 %29.87 in1.0 miCalmSnowLight Snow
12:15 PM12.2 °F8.6 °F85 %29.87 in1.2 miNW (310°)5.8 mphSnowLight Snow
12:35 PM12.2 °F8.6 °F85 %29.87 in1.0 miWNW (300°)3.5 mphSnowLight Snow
12:55 PM14.0 °F8.6 °F79 %29.87 in1.2 miWest (270°)4.6 mphSnowLight Snow
1:15 PM14.0 °F10.4 °F86 %29.87 in0.8 miWNW (300°)4.6 mphSnowLight Snow
1:35 PM14.0 °F8.6 °F79 %29.87 in1.0 miWNW (290°)4.6 mphSnowLight Snow
1:55 PM15.8 °F10.4 °F79 %29.86 in1.8 miNW (310°)5.8 mphSnowLight Snow
2:15 PM15.8 °F8.6 °F73 %29.86 in1.8 miCalmSnowLight Snow
2:35 PM15.8 °F8.6 °F73 %29.86 in4.0 miWSW (250°)3.5 mphSnowLight Snow
2:55 PM15.8 °F10.4 °F79 %29.86 in4.0 miWNW (290°)3.5 mphSnowLight Snow
3:15 PM17.6 °F10.4 °F73 %29.87 in2.5 miCalmSnowLight Snow
3:35 PM15.8 °F10.4 °F79 %29.87 in4.0 miNW (320°)5.8 mphSnowLight Snow
3:55 PM15.8 °F8.6 °F73 %29.88 in10.0 miNW (310°)4.6 mphOvercast
4:15 PM15.8 °F8.6 °F73 %29.88 in7.0 miNW (310°)6.9 mphOvercast
4:35 PM15.8 °F8.6 °F73 %29.89 in5.0 miWNW (300°)5.8 mphSnowLight Snow
4:55 PM14.0 °F8.6 °F79 %29.90 in7.0 miNW (310°)5.8 mphOvercast
5:15 PM14.0 °F10.4 °F86 %29.92 in2.5 miWNW (300°)5.8 mphSnowLight Snow
5:35 PM14.0 °F10.4 °F86 %29.93 in2.0 miNW (310°)8.1 mphSnowLight Snow
5:55 PM14.0 °F8.6 °F79 %29.95 in5.0 miNW (310°)8.1 mphSnowLight Snow
6:15 PM12.2 °F8.6 °F85 %29.97 in3.0 miWNW (300°)9.2 mphSnowLight Snow
6:35 PM12.2 °F6.8 °F79 %29.99 in7.0 miWNW (300°)3.5 mphSnowLight Snow
6:55 PM12.2 °F6.8 °F79 %29.99 in10.0 miWNW (300°)6.9 mphSnowLight Snow
7:15 PM10.4 °F6.8 °F85 %30.01 in10.0 miNW (310°)3.5 mphOvercast
7:35 PM10.4 °F6.8 °F85 %30.02 in5.0 miNW (310°)9.2 mphSnowLight Snow
7:55 PM10.4 °F6.8 °F85 %30.02 in5.0 miNW (310°)6.9 mph16.1 mphSnowLight Snow
8:15 PM10.4 °F6.8 °F85 %30.04 in5.0 miNW (310°)5.8 mphSnowLight Snow
8:35 PM8.6 °F5.0 °F85 %30.04 in5.0 miWNW (300°)5.8 mphSnowLight Snow
8:55 PM8.6 °F5.0 °F85 %30.05 in4.0 miWNW (300°)8.1 mphSnowLight Snow
9:15 PM8.6 °F6.8 °F92 %30.06 in1.2 miWNW (300°)5.8 mphSnowLight Snow
9:35 PM8.6 °F5.0 °F85 %30.07 in2.5 miWNW (290°)5.8 mphSnowLight Snow
9:55 PM8.6 °F5.0 °F85 %30.08 in7.0 miWNW (290°)5.8 mphSnowLight Snow
10:15 PM8.6 °F5.0 °F85 %30.08 in2.0 miWNW (300°)5.8 mphSnowLight Snow
10:35 PM8.6 °F5.0 °F85 %30.10 in2.0 miWNW (290°)4.6 mphSnowLight Snow
10:55 PM8.6 °F5.0 °F85 %30.10 in1.2 miWNW (290°)4.6 mphSnowLight Snow
11:15 PM8.6 °F5.0 °F85 %30.11 in2.0 miWNW (290°)6.9 mphSnowLight Snow
11:35 PM8.6 °F5.0 °F85 %30.11 in5.0 miNW (310°)5.8 mphSnowLight Snow
11:55 PM8.6 °F5.0 °F85 %30.12 in5.0 miNW (320°)4.6 mphSnowLight Snow
Hourly data recorded from KOLE, located miles away from Cuba, New York







STORIES FROM OUR PARTNERS